Litchfield, MN

8:51 AM CST on February 09, 2016 (GMT -0600)
Litchfield Municipal

Weather History for KLJF - May, 2014

Change the Weather History Date:

Monday, May 19, 2014

  Actual Average Record
Temperature  
Mean Temperature 56 °F -  
Max Temperature 62 °F 72 °F 90 °F (1972)
Min Temperature 51 °F 48 °F 32 °F (1971)
Degree Days  
Heating Degree Days 8    
Growing Degree Days 6 (Base 50)    
Moisture  
Dew Point 50 °F    
Average Humidity 82    
Maximum Humidity 100    
Minimum Humidity 42    
Precipitation  
Precipitation 0.61 in - - ()
Sea Level Pressure  
Sea Level Pressure 29.82 in    
Wind  
Wind Speed 11 mph (SE)    
Max Wind Speed 21 mph    
Max Gust Speed 25 mph    
Visibility 6 miles    
Events Rain , Thunderstorm    
Averages and records for this station are not official NWS values.
T = Trace of Precipitation, MM = Missing Value Source: NWS Daily Summary

Daily Weather History Graph

Daily Weather History Graph

Search for Another Location

Airport or City:

Trip Planner

Search our weather history database for the weather conditions in past years. The results will help you decide how hot, cold, wet, or windy it might be!

Date:

Astronomy

May. 19, 2014 Rise Set
Actual Time 5:44 AM CDT 8:45 PM CDT
Civil Twilight 5:09 AM CDT 9:20 PM CDT
Nautical Twilight 4:24 AM CDT 10:05 PM CDT
Astronomical Twilight 3:31 AM CDT 10:58 PM CDT
Moon 12:29 AM CDT (5/19) 10:47 AM CDT (5/19)
Length of Visible Light 16h 10m
Length of Day
15h 00m
Waning Gibbous, 71% of the Moon is Illuminated
May 19
Waning Gibbous
May 21
Last Quarter
May 28
New
Jun 5
First Quarter
Jun 12
Full

Hourly Weather History & Observations

Time (CDT) Temp. Dew Point Humidity Pressure Visibility Wind Dir Wind Speed Gust Speed Precip Events Conditions
12:13 AM 62.6 °F 39.2 °F 42% 29.97 in 10.0 mi SSE 8.1 mph - N/A   Overcast
12:32 AM 62.6 °F 39.2 °F 42% 29.96 in 10.0 mi SSE 8.1 mph - N/A   Overcast
12:53 AM 62.6 °F 39.2 °F 42% 29.96 in 10.0 mi SSE 6.9 mph 16.1 mph N/A   Overcast
1:12 AM 62.6 °F 39.2 °F 42% 29.96 in 10.0 mi SSE 8.1 mph - N/A   Overcast
1:33 AM 62.6 °F 41.0 °F 45% 29.96 in 10.0 mi SSE 8.1 mph - N/A   Overcast
1:53 AM 62.6 °F 41.0 °F 45% 29.96 in 10.0 mi SSE 9.2 mph - N/A   Overcast
2:12 AM 62.6 °F 41.0 °F 45% 29.96 in 10.0 mi SSE 9.2 mph - N/A   Overcast
2:33 AM 60.8 °F 41.0 °F 48% 29.94 in 10.0 mi SSE 9.2 mph - N/A   Mostly Cloudy
2:53 AM 60.8 °F 42.8 °F 52% 29.93 in 10.0 mi SSE 10.4 mph 18.4 mph N/A   Mostly Cloudy
3:12 AM 60.8 °F 42.8 °F 52% 29.93 in 10.0 mi SSE 9.2 mph 17.3 mph N/A   Mostly Cloudy
3:33 AM 60.8 °F 42.8 °F 52% 29.92 in 10.0 mi SSE 10.4 mph 18.4 mph N/A   Mostly Cloudy
3:53 AM 60.8 °F 42.8 °F 52% 29.91 in 10.0 mi SSE 11.5 mph 17.3 mph N/A   Mostly Cloudy
4:12 AM 60.8 °F 42.8 °F 52% 29.90 in 10.0 mi SE 12.7 mph 18.4 mph N/A   Scattered Clouds
4:33 AM 59.0 °F 44.6 °F 59% 29.88 in 10.0 mi SE 12.7 mph 17.3 mph N/A   Clear
4:53 AM 59.0 °F 44.6 °F 59% 29.88 in 10.0 mi SE 12.7 mph 17.3 mph N/A   Mostly Cloudy
5:12 AM 59.0 °F 44.6 °F 59% 29.89 in 10.0 mi SE 11.5 mph - N/A   Overcast
5:33 AM 59.0 °F 44.6 °F 59% 29.87 in 10.0 mi SE 13.8 mph - N/A   Overcast
5:53 AM 59.0 °F 44.6 °F 59% 29.86 in 10.0 mi SE 15.0 mph 21.9 mph N/A   Mostly Cloudy
6:12 AM 59.0 °F 44.6 °F 59% 29.86 in 10.0 mi SE 11.5 mph 20.7 mph N/A   Overcast
6:33 AM 59.0 °F 44.6 °F 59% 29.86 in 10.0 mi SE 12.7 mph 23.0 mph N/A   Overcast
6:52 AM 59.0 °F 44.6 °F 59% 29.88 in 10.0 mi SE 15.0 mph 23.0 mph N/A   Overcast
7:13 AM 59.0 °F 44.6 °F 59% 29.87 in 10.0 mi SE 13.8 mph 20.7 mph N/A   Overcast
7:33 AM 59.0 °F 44.6 °F 59% 29.85 in 10.0 mi SE 16.1 mph 21.9 mph N/A   Overcast
8:33 AM 57.2 °F 48.2 °F 72% 29.82 in 10.0 mi SE 20.7 mph 25.3 mph N/A   Overcast
8:53 AM 57.2 °F 48.2 °F 72% 29.82 in 10.0 mi ESE 19.6 mph 25.3 mph N/A Thunderstorm Overcast
9:53 AM 53.6 °F 51.8 °F 94% 29.81 in 5.0 mi East 13.8 mph - N/A Rain , Thunderstorm Light Thunderstorms and Rain
10:13 AM 51.8 °F 51.8 °F 100% 29.81 in 10.0 mi ESE 11.5 mph - N/A Thunderstorm Overcast
10:32 AM 53.6 °F 53.6 °F 100% 29.80 in 10.0 mi SE 12.7 mph 24.2 mph N/A Thunderstorm Thunderstorm
10:53 AM 51.8 °F 51.8 °F 100% 29.80 in 4.0 mi SE 15.0 mph - 0.09 in Rain , Thunderstorm Thunderstorms and Rain
11:13 AM 53.6 °F 53.6 °F 100% 29.87 in 4.0 mi Calm Calm - 0.15 in Rain Rain
11:32 AM 53.6 °F 53.6 °F 100% 29.86 in 4.0 mi ESE 6.9 mph - 0.46 in Rain , Thunderstorm Heavy Thunderstorms and Rain
11:53 AM 53.6 °F 53.6 °F 100% 29.85 in 5.0 mi SE 11.5 mph - N/A Rain , Thunderstorm Thunderstorms and Rain
12:13 PM 53.6 °F 53.6 °F 100% 29.83 in 4.0 mi ESE 13.8 mph - 0.05 in Rain Rain
12:32 PM 53.6 °F 53.6 °F 100% - 3.0 mi ESE 13.8 mph - 0.06 in Thunderstorm Unknown
1:13 PM 53.6 °F 53.6 °F 100% 29.80 in 3.0 mi ESE 18.4 mph 21.9 mph N/A   Overcast
1:32 PM 53.6 °F 53.6 °F 100% 29.79 in 3.0 mi SE 15.0 mph 23.0 mph N/A   Overcast
1:53 PM 53.6 °F 53.6 °F 100% 29.78 in 3.0 mi SE 18.4 mph - N/A   Overcast
2:13 PM 53.6 °F 53.6 °F 100% 29.78 in 3.0 mi SE 19.6 mph 25.3 mph N/A Thunderstorm Overcast
2:33 PM 53.6 °F 53.6 °F 100% 29.78 in 4.0 mi SE 17.3 mph 23.0 mph N/A   Overcast
2:53 PM 53.6 °F 53.6 °F 100% 29.77 in 3.0 mi SE 18.4 mph 23.0 mph N/A Thunderstorm Overcast
3:12 PM 53.6 °F 53.6 °F 100% 29.77 in 4.0 mi SE 15.0 mph 21.9 mph N/A   Overcast
3:33 PM 55.4 °F 55.4 °F 100% 29.76 in 3.0 mi SE 15.0 mph - N/A   Overcast
3:53 PM 55.4 °F 55.4 °F 100% 29.75 in 4.0 mi SE 12.7 mph 19.6 mph N/A Thunderstorm Overcast
4:12 PM 55.4 °F 55.4 °F 100% 29.75 in 4.0 mi SE 15.0 mph 20.7 mph N/A   Overcast
4:33 PM 55.4 °F 55.4 °F 100% 29.75 in 3.0 mi SE 13.8 mph 20.7 mph N/A   Overcast
4:53 PM 55.4 °F 55.4 °F 100% 29.75 in 3.0 mi SE 13.8 mph 20.7 mph N/A   Overcast
5:12 PM 55.4 °F 55.4 °F 100% 29.75 in 3.0 mi SE 11.5 mph 18.4 mph N/A   Overcast
5:53 PM 55.4 °F 55.4 °F 100% 29.75 in 2.5 mi SE 15.0 mph - N/A   Overcast
6:12 PM 55.4 °F 55.4 °F 100% 29.76 in 1.8 mi SE 12.7 mph - N/A   Overcast
6:33 PM 55.4 °F 55.4 °F 100% 29.76 in 1.5 mi SE 9.2 mph - N/A   Overcast
6:53 PM 55.4 °F 55.4 °F 100% 29.75 in 1.2 mi SE 16.1 mph - N/A   Drizzle
7:12 PM 55.4 °F 55.4 °F 100% 29.76 in 1.8 mi SE 10.4 mph - N/A   Light Drizzle
7:33 PM 55.4 °F 55.4 °F 100% 29.76 in 2.5 mi SE 12.7 mph - N/A   Overcast
7:53 PM 55.4 °F 55.4 °F 100% 29.76 in 4.0 mi SE 9.2 mph 16.1 mph N/A   Overcast
8:12 PM 53.6 °F 53.6 °F 100% 29.76 in 3.0 mi SE 12.7 mph - N/A   Overcast
8:33 PM 53.6 °F 53.6 °F 100% 29.77 in 5.0 mi SE 10.4 mph 17.3 mph N/A   Overcast
8:52 PM 53.6 °F 53.6 °F 100% 29.77 in 4.0 mi SE 9.2 mph - N/A   Overcast
9:13 PM 53.6 °F 53.6 °F 100% 29.73 in 4.0 mi ESE 16.1 mph - N/A   Overcast
9:32 PM 53.6 °F 53.6 °F 100% 29.74 in 4.0 mi SE 12.7 mph 19.6 mph N/A   Overcast
9:53 PM 55.4 °F 55.4 °F 100% 29.77 in 4.0 mi SSE 8.1 mph - N/A   Overcast
10:13 PM 55.4 °F 55.4 °F 100% 29.75 in 4.0 mi SE 11.5 mph - N/A   Overcast
10:32 PM 55.4 °F 55.4 °F 100% 29.75 in 4.0 mi SSE 8.1 mph 18.4 mph N/A   Overcast
10:53 PM 55.4 °F 55.4 °F 100% 29.73 in 4.0 mi SE 11.5 mph - N/A   Overcast
11:13 PM 55.4 °F 55.4 °F 100% 29.74 in 4.0 mi SSE 8.1 mph - N/A   Overcast
11:32 PM 55.4 °F 55.4 °F 100% 29.74 in 4.0 mi SE 8.1 mph - N/A   Overcast
11:53 PM 55.4 °F 55.4 °F 100% 29.75 in 4.0 mi SE 4.6 mph - N/A Thunderstorm Overcast